Location: Kikino
(54.4440°N, 112.0940°W)
Time: 11:19:33
(UTC+00:00)

Transit 2A Rocket - Visible Passes

Search period start: 19 May 2024 00:00
Search period end: 29 May 2024 00:00
Orbit: 585 x 908 km, 66.7° (Epoch: 18 May)

Date Brightness Start Highest point End Pass type
(mag) Time Alt. Az. Time Alt. Az. Time Alt. Az.
22 May 7.3 10:12:24 10° SE 10:15:06 15° ESE 10:17:56 10° ENE visible
25 May 7.0 09:41:51 10° SSE 09:45:14 19° ESE 09:48:51 10° ENE visible
26 May 7.3 09:00:12 10° ESE 09:01:43 11° E 09:03:16 10° E visible
27 May 6.0 09:54:36 10° S 09:59:06 37° ESE 10:04:02 10° NE visible
28 May 6.6 09:11:30 10° SSE 09:15:23 24° ESE 09:19:35 10° ENE visible
